contact:dominique.lefevre@mio.osupytheas.fr, maurice.libes@osupytheas.fr, didier.mallarino@osupytheas.fr
Project:EMSO http://www.emso-fr.org/EMSO-France
Depth: 2436.0 m
Title:EMSO Ligure Ouest : Data MII capteur CSTAR
DateTime,Latitude,Longitude,Instrument_Serial,Reference_Counts,Signal_Counts,Corrected_Signal_raw_counts,Calculated_Beam_c_inverse_meters,Internal_thermistor_counts
DateTime,Latitude,Longitude,Instrument_Serial,Reference_Counts,Signal_Counts,Corrected_Signal_raw_counts,Calculated_Beam_c_inverse_meters,Internal_thermistor_counts
2019-08-03T00:01:30,42.805,6.029,CST-1368DR,8439,11804,15438,0.046,551
2019-08-03T00:04:31,42.805,6.029,CST-1368DR,8439,11803,15437,0.046,551
2019-08-03T00:07:33,42.805,6.029,CST-1368DR,8439,11805,15439,0.046,551
2019-08-03T00:10:35,42.805,6.029,CST-1368DR,8439,11804,15438,0.046,551
2019-08-03T00:13:36,42.805,6.029,CST-1368DR,8439,11803,15437,0.046,551
2019-08-03T00:16:38,42.805,6.029,CST-1368DR,8439,11803,15436,0.046,551
2019-08-03T00:19:40,42.805,6.029,CST-1368DR,8439,11803,15437,0.046,551
2019-08-03T00:22:41,42.805,6.029,CST-1368DR,8439,11803,15436,0.046,551
2019-08-03T00:25:43,42.805,6.029,CST-1368DR,8439,11803,15437,0.046,551
2019-08-03T00:28:45,42.805,6.029,CST-1368DR,8439,11803,15436,0.046,551
2019-08-03T00:31:46,42.805,6.029,CST-1368DR,8439,11803,15437,0.046,551
2019-08-03T00:34:48,42.805,6.029,CST-1368DR,8438,11801,15436,0.046,551
2019-08-03T00:37:50,42.805,6.029,CST-1368DR,8439,11803,15436,0.046,551
2019-08-03T00:40:51,42.805,6.029,CST-1368DR,8438,11802,15437,0.046,551
2019-08-03T00:43:53,42.805,6.029,CST-1368DR,8438,11800,15434,0.047,550
2019-08-03T00:46:54,42.805,6.029,CST-1368DR,8438,11798,15432,0.047,551
2019-08-03T00:49:56,42.805,6.029,CST-1368DR,8438,11802,15438,0.046,551
2019-08-03T00:52:58,42.805,6.029,CST-1368DR,8438,11800,15435,0.047,551
2019-08-03T00:55:59,42.805,6.029,CST-1368DR,8438,11802,15437,0.046,551
2019-08-03T00:59:01,42.805,6.029,CST-1368DR,8437,11760,15384,0.060,551
2019-08-03T01:02:03,42.805,6.029,CST-1368DR,8438,11799,15433,0.047,551
2019-08-03T01:05:04,42.805,6.029,CST-1368DR,8438,11801,15436,0.046,551
2019-08-03T01:08:06,42.805,6.029,CST-1368DR,8438,11802,15437,0.046,551
2019-08-03T01:11:08,42.805,6.029,CST-1368DR,8438,11801,15436,0.046,551
2019-08-03T01:14:09,42.805,6.029,CST-1368DR,8438,11802,15437,0.046,551
2019-08-03T01:17:11,42.805,6.029,CST-1368DR,8438,11801,15436,0.046,551
2019-08-03T01:20:13,42.805,6.029,CST-1368DR,8438,11799,15433,0.047,551
2019-08-03T01:23:14,42.805,6.029,CST-1368DR,8438,11802,15437,0.046,551
2019-08-03T01:26:16,42.805,6.029,CST-1368DR,8438,11801,15436,0.046,551
2019-08-03T01:29:18,42.805,6.029,CST-1368DR,8438,11801,15436,0.046,551
2019-08-03T01:32:19,42.805,6.029,CST-1368DR,8438,11800,15435,0.047,551
2019-08-03T01:35:21,42.805,6.029,CST-1368DR,8438,11801,15436,0.046,551
2019-08-03T01:38:23,42.805,6.029,CST-1368DR,8438,11801,15436,0.046,551
2019-08-03T01:41:24,42.805,6.029,CST-1368DR,8438,11802,15438,0.046,551
2019-08-03T01:44:26,42.805,6.029,CST-1368DR,8438,11802,15437,0.046,551
2019-08-03T01:47:27,42.805,6.029,CST-1368DR,8438,11802,15438,0.046,551
2019-08-03T01:50:29,42.805,6.029,CST-1368DR,8438,11801,15436,0.046,551
2019-08-03T01:53:31,42.805,6.029,CST-1368DR,8438,11801,15436,0.046,551
2019-08-03T01:56:32,42.805,6.029,CST-1368DR,8438,11801,15436,0.046,551
2019-08-03T01:59:34,42.805,6.029,CST-1368DR,8438,11801,15436,0.046,551
2019-08-03T02:02:36,42.805,6.029,CST-1368DR,8438,11802,15438,0.046,551
2019-08-03T02:05:37,42.805,6.029,CST-1368DR,8438,11800,15435,0.047,551
2019-08-03T02:08:39,42.805,6.029,CST-1368DR,8438,11800,15434,0.047,551
2019-08-03T02:11:41,42.805,6.029,CST-1368DR,8438,11798,15432,0.047,551
2019-08-03T02:14:42,42.805,6.029,CST-1368DR,8438,11801,15436,0.046,551
2019-08-03T02:17:44,42.805,6.029,CST-1368DR,8438,11801,15436,0.046,551
2019-08-03T02:20:46,42.805,6.029,CST-1368DR,8438,11802,15437,0.046,551
2019-08-03T02:23:47,42.805,6.029,CST-1368DR,8438,11800,15435,0.047,551
2019-08-03T02:26:49,42.805,6.029,CST-1368DR,8438,11801,15436,0.046,551
2019-08-03T02:29:51,42.805,6.029,CST-1368DR,8438,11801,15436,0.046,551
2019-08-03T02:32:52,42.805,6.029,CST-1368DR,8438,11800,15435,0.047,551
2019-08-03T02:35:54,42.805,6.029,CST-1368DR,8437,11801,15438,0.046,551
2019-08-03T02:38:56,42.805,6.029,CST-1368DR,8437,11800,15437,0.046,551
2019-08-03T02:41:57,42.805,6.029,CST-1368DR,8437,11798,15434,0.047,551
2019-08-03T02:44:59,42.805,6.029,CST-1368DR,8437,11801,15438,0.046,551
2019-08-03T02:48:00,42.805,6.029,CST-1368DR,8437,11801,15438,0.046,551
2019-08-03T02:51:02,42.805,6.029,CST-1368DR,8437,11802,15439,0.046,551
2019-08-03T02:54:04,42.805,6.029,CST-1368DR,8437,11801,15438,0.046,551
2019-08-03T02:57:05,42.805,6.029,CST-1368DR,8437,11800,15436,0.046,551
2019-08-03T03:00:07,42.805,6.029,CST-1368DR,8437,11801,15437,0.046,551
2019-08-03T03:03:09,42.805,6.029,CST-1368DR,8437,11801,15438,0.046,551
2019-08-03T03:06:10,42.805,6.029,CST-1368DR,8437,11801,15437,0.046,551
2019-08-03T03:09:12,42.805,6.029,CST-1368DR,8437,11801,15438,0.046,550
2019-08-03T03:12:13,42.805,6.029,CST-1368DR,8437,11800,15436,0.046,551
2019-08-03T03:15:15,42.805,6.029,CST-1368DR,8437,11799,15434,0.047,551
2019-08-03T03:18:17,42.805,6.029,CST-1368DR,8437,11799,15434,0.047,551
2019-08-03T03:21:18,42.805,6.029,CST-1368DR,8437,11800,15436,0.046,551
2019-08-03T03:24:20,42.805,6.029,CST-1368DR,8437,11797,15433,0.047,551
2019-08-03T03:27:22,42.805,6.029,CST-1368DR,8437,11800,15436,0.046,551
2019-08-03T03:30:23,42.805,6.029,CST-1368DR,8437,11799,15435,0.047,551
2019-08-03T03:33:25,42.805,6.029,CST-1368DR,8437,11798,15433,0.047,551
2019-08-03T03:36:27,42.805,6.029,CST-1368DR,8437,11799,15435,0.047,551
2019-08-03T03:39:28,42.805,6.029,CST-1368DR,8437,11800,15436,0.046,551
2019-08-03T03:42:30,42.805,6.029,CST-1368DR,8437,11801,15438,0.046,551
2019-08-03T03:45:31,42.805,6.029,CST-1368DR,8437,11800,15436,0.046,551
2019-08-03T03:48:33,42.805,6.029,CST-1368DR,8437,11801,15438,0.046,551
2019-08-03T03:51:35,42.805,6.029,CST-1368DR,8437,11801,15437,0.046,551
2019-08-03T03:54:36,42.805,6.029,CST-1368DR,8437,11781,15411,0.053,550
2019-08-03T03:57:38,42.805,6.029,CST-1368DR,8437,11801,15437,0.046,551
2019-08-03T04:00:40,42.805,6.029,CST-1368DR,8437,11801,15437,0.046,551
2019-08-03T04:03:41,42.805,6.029,CST-1368DR,8437,11800,15437,0.046,551
2019-08-03T04:06:43,42.805,6.029,CST-1368DR,8437,11800,15436,0.046,551
2019-08-03T04:09:45,42.805,6.029,CST-1368DR,8437,11800,15436,0.046,551
2019-08-03T04:12:46,42.805,6.029,CST-1368DR,8437,11800,15436,0.046,550
2019-08-03T04:15:48,42.805,6.029,CST-1368DR,8437,11798,15433,0.047,551
2019-08-03T04:18:49,42.805,6.029,CST-1368DR,8437,11799,15435,0.047,551
2019-08-03T04:21:51,42.805,6.029,CST-1368DR,8437,11793,15427,0.049,551
2019-08-03T04:24:53,42.805,6.029,CST-1368DR,8437,11799,15435,0.047,551
2019-08-03T04:27:54,42.805,6.029,CST-1368DR,8436,11801,15439,0.046,551
2019-08-03T04:30:56,42.805,6.029,CST-1368DR,8437,11800,15436,0.046,551
2019-08-03T04:33:58,42.805,6.029,CST-1368DR,8436,11800,15438,0.046,551
2019-08-03T04:36:59,42.805,6.029,CST-1368DR,8437,11799,15435,0.047,551
2019-08-03T04:40:01,42.805,6.029,CST-1368DR,8437,11800,15436,0.046,550
2019-08-03T04:43:03,42.805,6.029,CST-1368DR,8436,11800,15437,0.046,551
2019-08-03T04:46:04,42.805,6.029,CST-1368DR,8436,11788,15422,0.050,551
2019-08-03T04:49:06,42.805,6.029,CST-1368DR,8436,11800,15437,0.046,551
2019-08-03T04:52:07,42.805,6.029,CST-1368DR,8436,11797,15434,0.047,551
2019-08-03T04:55:09,42.805,6.029,CST-1368DR,8436,11800,15437,0.046,551
2019-08-03T04:58:11,42.805,6.029,CST-1368DR,8436,11798,15435,0.047,550
2019-08-03T05:01:12,42.805,6.029,CST-1368DR,8436,11796,15433,0.047,551
2019-08-03T05:04:14,42.805,6.029,CST-1368DR,8436,11800,15437,0.046,550
2019-08-03T05:07:16,42.805,6.029,CST-1368DR,8436,11799,15437,0.046,550
2019-08-03T05:10:17,42.805,6.029,CST-1368DR,8436,11799,15436,0.046,551
2019-08-03T05:13:19,42.805,6.029,CST-1368DR,8436,11800,15437,0.046,551
2019-08-03T05:16:21,42.805,6.029,CST-1368DR,8436,11800,15437,0.046,551
2019-08-03T05:19:22,42.805,6.029,CST-1368DR,8436,11799,15436,0.046,551
2019-08-03T05:22:24,42.805,6.029,CST-1368DR,8436,11799,15436,0.046,551
2019-08-03T05:25:26,42.805,6.029,CST-1368DR,8436,11800,15438,0.046,551
2019-08-03T05:28:27,42.805,6.029,CST-1368DR,8436,11798,15435,0.047,551
2019-08-03T05:31:29,42.805,6.029,CST-1368DR,8436,11798,15435,0.047,551
2019-08-03T05:34:30,42.805,6.029,CST-1368DR,8436,11783,15416,0.052,551
2019-08-03T05:37:32,42.805,6.029,CST-1368DR,8436,11800,15438,0.046,551
2019-08-03T05:40:34,42.805,6.029,CST-1368DR,8436,11795,15431,0.048,551
2019-08-03T05:43:35,42.805,6.029,CST-1368DR,8436,11799,15437,0.046,551
2019-08-03T05:46:37,42.805,6.029,CST-1368DR,8436,11799,15437,0.046,550
2019-08-03T05:49:39,42.805,6.029,CST-1368DR,8436,11799,15437,0.046,551
2019-08-03T05:52:40,42.805,6.029,CST-1368DR,8436,11799,15437,0.046,551
2019-08-03T05:55:42,42.805,6.029,CST-1368DR,8436,11799,15437,0.046,551
2019-08-03T05:58:44,42.805,6.029,CST-1368DR,8436,11799,15437,0.046,551
2019-08-03T06:01:45,42.805,6.029,CST-1368DR,8436,11798,15435,0.047,551
2019-08-03T06:04:47,42.805,6.029,CST-1368DR,8436,11799,15437,0.046,551
2019-08-03T06:07:48,42.805,6.029,CST-1368DR,8436,11799,15437,0.046,551
2019-08-03T06:10:50,42.805,6.029,CST-1368DR,8436,11800,15438,0.046,551
2019-08-03T06:13:52,42.805,6.029,CST-1368DR,8436,11799,15436,0.046,551
2019-08-03T06:16:54,42.805,6.029,CST-1368DR,8436,11799,15437,0.046,551
2019-08-03T06:19:56,42.805,6.029,CST-1368DR,8436,11796,15432,0.047,551
2019-08-03T06:22:57,42.805,6.029,CST-1368DR,8436,11800,15438,0.046,551
2019-08-03T06:25:59,42.805,6.029,CST-1368DR,8436,11799,15436,0.046,551
2019-08-03T06:29:01,42.805,6.029,CST-1368DR,8436,11799,15437,0.046,551
2019-08-03T06:32:02,42.805,6.029,CST-1368DR,8435,11799,15438,0.046,551
2019-08-03T06:35:04,42.805,6.029,CST-1368DR,8435,11797,15436,0.046,551
2019-08-03T06:38:06,42.805,6.029,CST-1368DR,8435,11798,15437,0.046,551
2019-08-03T06:41:07,42.805,6.029,CST-1368DR,8435,11798,15437,0.046,551
2019-08-03T06:44:09,42.805,6.029,CST-1368DR,8435,11798,15437,0.046,551
2019-08-03T06:47:11,42.805,6.029,CST-1368DR,8436,11798,15435,0.047,551
2019-08-03T06:50:12,42.805,6.029,CST-1368DR,8435,11798,15436,0.046,551
2019-08-03T06:53:14,42.805,6.029,CST-1368DR,8435,11798,15436,0.046,551
2019-08-03T06:56:15,42.805,6.029,CST-1368DR,8435,11798,15437,0.046,551
2019-08-03T06:59:17,42.805,6.029,CST-1368DR,8435,11799,15438,0.046,551
2019-08-03T07:02:19,42.805,6.029,CST-1368DR,8435,11800,15439,0.046,550
2019-08-03T07:05:20,42.805,6.029,CST-1368DR,8435,11799,15438,0.046,551
2019-08-03T07:08:22,42.805,6.029,CST-1368DR,8435,11797,15436,0.046,551
2019-08-03T07:11:24,42.805,6.029,CST-1368DR,8435,11799,15439,0.046,551
2019-08-03T07:14:25,42.805,6.029,CST-1368DR,8435,11796,15434,0.047,551
2019-08-03T07:17:27,42.805,6.029,CST-1368DR,8435,11799,15438,0.046,551
2019-08-03T07:20:29,42.805,6.029,CST-1368DR,8435,11796,15435,0.047,551
2019-08-03T07:23:30,42.805,6.029,CST-1368DR,8435,11798,15436,0.046,551
2019-08-03T07:26:32,42.805,6.029,CST-1368DR,8435,11797,15436,0.046,551
2019-08-03T07:29:34,42.805,6.029,CST-1368DR,8435,11799,15438,0.046,551
2019-08-03T07:32:36,42.805,6.029,CST-1368DR,8435,11798,15436,0.046,551
2019-08-03T07:35:38,42.805,6.029,CST-1368DR,8435,11797,15436,0.046,550
2019-08-03T07:38:39,42.805,6.029,CST-1368DR,8435,11798,15437,0.046,551
2019-08-03T07:41:41,42.805,6.029,CST-1368DR,8435,11798,15437,0.046,551
2019-08-03T07:44:43,42.805,6.029,CST-1368DR,8435,11797,15436,0.046,551
2019-08-03T07:47:45,42.805,6.029,CST-1368DR,8435,11797,15436,0.046,551
2019-08-03T07:50:46,42.805,6.029,CST-1368DR,8435,11795,15433,0.047,551
2019-08-03T07:53:48,42.805,6.029,CST-1368DR,8435,11795,15433,0.047,551
2019-08-03T07:56:50,42.805,6.029,CST-1368DR,8435,11796,15435,0.047,551
2019-08-03T07:59:52,42.805,6.029,CST-1368DR,8435,11799,15438,0.046,551
2019-08-03T08:02:54,42.805,6.029,CST-1368DR,8435,11799,15438,0.046,551
2019-08-03T08:05:55,42.805,6.029,CST-1368DR,8435,11794,15432,0.047,551
2019-08-03T08:08:57,42.805,6.029,CST-1368DR,8435,11799,15438,0.046,551
2019-08-03T08:11:59,42.805,6.029,CST-1368DR,8435,11797,15436,0.046,551
2019-08-03T08:15:01,42.805,6.029,CST-1368DR,8435,11795,15433,0.047,551
2019-08-03T08:18:03,42.805,6.029,CST-1368DR,8435,11798,15437,0.046,551
2019-08-03T08:21:04,42.805,6.029,CST-1368DR,8435,11798,15437,0.046,551
2019-08-03T08:24:06,42.805,6.029,CST-1368DR,8435,11796,15435,0.047,551
2019-08-03T08:27:08,42.805,6.029,CST-1368DR,8434,11794,15433,0.047,551
2019-08-03T08:30:10,42.805,6.029,CST-1368DR,8435,11797,15436,0.046,551
2019-08-03T08:33:12,42.805,6.029,CST-1368DR,8435,11796,15434,0.047,551
2019-08-03T08:36:14,42.805,6.029,CST-1368DR,8435,11795,15433,0.047,551
2019-08-03T08:39:15,42.805,6.029,CST-1368DR,8434,11797,15438,0.046,551
2019-08-03T08:42:17,42.805,6.029,CST-1368DR,8434,11798,15438,0.046,551
2019-08-03T08:45:19,42.805,6.029,CST-1368DR,8434,11799,15440,0.045,551
2019-08-03T08:48:21,42.805,6.029,CST-1368DR,8434,11793,15432,0.047,551
2019-08-03T08:51:23,42.805,6.029,CST-1368DR,8434,11796,15435,0.047,551
2019-08-03T08:54:24,42.805,6.029,CST-1368DR,8434,11795,15435,0.047,551
2019-08-03T08:57:26,42.805,6.029,CST-1368DR,8434,11798,15438,0.046,551
2019-08-03T09:00:28,42.805,6.029,CST-1368DR,8434,11797,15438,0.046,551
2019-08-03T09:03:30,42.805,6.029,CST-1368DR,8434,11797,15437,0.046,551
2019-08-03T09:06:31,42.805,6.029,CST-1368DR,8434,11797,15437,0.046,551
2019-08-03T09:09:33,42.805,6.029,CST-1368DR,8434,11796,15436,0.046,551
2019-08-03T09:12:35,42.805,6.029,CST-1368DR,8434,11797,15437,0.046,551
2019-08-03T09:15:37,42.805,6.029,CST-1368DR,8434,11796,15436,0.046,551
2019-08-03T09:18:39,42.805,6.029,CST-1368DR,8434,11796,15436,0.046,550
2019-08-03T09:21:41,42.805,6.029,CST-1368DR,8434,11797,15437,0.046,551
2019-08-03T09:24:42,42.805,6.029,CST-1368DR,8434,11798,15438,0.046,551
2019-08-03T09:27:44,42.805,6.029,CST-1368DR,8434,11797,15437,0.046,551
2019-08-03T09:30:46,42.805,6.029,CST-1368DR,8434,11797,15437,0.046,551
2019-08-03T09:33:48,42.805,6.029,CST-1368DR,8434,11798,15438,0.046,551
2019-08-03T09:36:50,42.805,6.029,CST-1368DR,8434,11793,15432,0.047,551
2019-08-03T09:39:52,42.805,6.029,CST-1368DR,8434,11794,15433,0.047,551
2019-08-03T09:42:53,42.805,6.029,CST-1368DR,8434,11794,15434,0.047,551
2019-08-03T09:45:55,42.805,6.029,CST-1368DR,8434,11797,15438,0.046,551
2019-08-03T09:48:57,42.805,6.029,CST-1368DR,8434,11797,15437,0.046,551
2019-08-03T09:51:59,42.805,6.029,CST-1368DR,8434,11797,15437,0.046,551
2019-08-03T09:55:01,42.805,6.029,CST-1368DR,8434,11797,15437,0.046,551
2019-08-03T09:58:02,42.805,6.029,CST-1368DR,8434,11798,15438,0.046,551
2019-08-03T10:01:04,42.805,6.029,CST-1368DR,8434,11795,15434,0.047,551
2019-08-03T10:04:06,42.805,6.029,CST-1368DR,8434,11795,15435,0.047,551
2019-08-03T10:07:08,42.805,6.029,CST-1368DR,8434,11797,15437,0.046,551
2019-08-03T10:10:10,42.805,6.029,CST-1368DR,8434,11795,15434,0.047,551
2019-08-03T10:13:12,42.805,6.029,CST-1368DR,8434,11797,15437,0.046,551
2019-08-03T10:16:13,42.805,6.029,CST-1368DR,8434,11797,15437,0.046,551
2019-08-03T10:19:15,42.805,6.029,CST-1368DR,8434,11797,15437,0.046,551
2019-08-03T10:22:17,42.805,6.029,CST-1368DR,8434,11798,15438,0.046,551
2019-08-03T10:25:19,42.805,6.029,CST-1368DR,8434,11796,15436,0.046,550
2019-08-03T10:28:21,42.805,6.029,CST-1368DR,8434,11796,15436,0.046,550
2019-08-03T10:31:23,42.805,6.029,CST-1368DR,8434,11796,15436,0.046,551
2019-08-03T10:34:25,42.805,6.029,CST-1368DR,8434,11796,15436,0.046,551
2019-08-03T10:37:26,42.805,6.029,CST-1368DR,8434,11796,15436,0.046,551
2019-08-03T10:40:28,42.805,6.029,CST-1368DR,8433,11797,15439,0.046,551
2019-08-03T10:43:30,42.805,6.029,CST-1368DR,8433,11796,15438,0.046,551
2019-08-03T10:46:32,42.805,6.029,CST-1368DR,8433,11794,15436,0.046,551
2019-08-03T10:49:34,42.805,6.029,CST-1368DR,8433,11781,15418,0.051,550
2019-08-03T10:52:36,42.805,6.029,CST-1368DR,8433,11797,15439,0.046,551
2019-08-03T10:55:37,42.805,6.029,CST-1368DR,8433,11796,15438,0.046,551
2019-08-03T10:58:39,42.805,6.029,CST-1368DR,8433,11797,15438,0.046,551
2019-08-03T11:01:41,42.805,6.029,CST-1368DR,8433,11796,15437,0.046,550
2019-08-03T11:04:43,42.805,6.029,CST-1368DR,8433,11792,15433,0.047,551
2019-08-03T11:07:45,42.805,6.029,CST-1368DR,8433,11797,15439,0.046,551
2019-08-03T11:10:46,42.805,6.029,CST-1368DR,8433,11793,15434,0.047,551
2019-08-03T11:13:48,42.805,6.029,CST-1368DR,8433,11797,15438,0.046,551
2019-08-03T11:16:50,42.805,6.029,CST-1368DR,8433,11796,15437,0.046,550
2019-08-03T11:19:52,42.805,6.029,CST-1368DR,8433,11796,15438,0.046,551
2019-08-03T11:22:54,42.805,6.029,CST-1368DR,8433,11796,15438,0.046,551
2019-08-03T11:25:56,42.805,6.029,CST-1368DR,8433,11796,15438,0.046,551
2019-08-03T11:28:57,42.805,6.029,CST-1368DR,8433,11796,15438,0.046,551
2019-08-03T11:31:59,42.805,6.029,CST-1368DR,8433,11796,15437,0.046,551
2019-08-03T11:35:01,42.805,6.029,CST-1368DR,8433,11795,15437,0.046,551
2019-08-03T11:38:03,42.805,6.029,CST-1368DR,8433,11794,15435,0.047,551
2019-08-03T11:41:05,42.805,6.029,CST-1368DR,8433,11795,15437,0.046,551
2019-08-03T11:44:06,42.805,6.029,CST-1368DR,8433,11796,15438,0.046,551
2019-08-03T11:47:08,42.805,6.029,CST-1368DR,8433,11793,15434,0.047,551
2019-08-03T11:50:10,42.805,6.029,CST-1368DR,8433,11795,15436,0.046,551
2019-08-03T11:53:12,42.805,6.029,CST-1368DR,8433,11795,15437,0.046,551
2019-08-03T11:56:14,42.805,6.029,CST-1368DR,8433,11794,15436,0.046,551
2019-08-03T11:59:16,42.805,6.029,CST-1368DR,8433,11796,15438,0.046,551
2019-08-03T12:02:17,42.805,6.029,CST-1368DR,8433,11795,15437,0.046,551
2019-08-03T12:05:19,42.805,6.029,CST-1368DR,8433,11794,15435,0.047,550
2019-08-03T12:08:21,42.805,6.029,CST-1368DR,8433,11792,15433,0.047,551
2019-08-03T12:11:23,42.805,6.029,CST-1368DR,8433,11796,15438,0.046,551
2019-08-03T12:14:24,42.805,6.029,CST-1368DR,8433,11796,15437,0.046,550
2019-08-03T12:17:26,42.805,6.029,CST-1368DR,8433,11795,15436,0.046,551
2019-08-03T12:20:28,42.805,6.029,CST-1368DR,8433,11794,15436,0.046,551
2019-08-03T12:23:30,42.805,6.029,CST-1368DR,8433,11792,15432,0.047,551
2019-08-03T12:26:31,42.805,6.029,CST-1368DR,8433,11796,15437,0.046,551
2019-08-03T12:29:33,42.805,6.029,CST-1368DR,8433,11794,15435,0.047,551
2019-08-03T12:32:35,42.805,6.029,CST-1368DR,8433,11795,15436,0.046,551
2019-08-03T12:35:37,42.805,6.029,CST-1368DR,8433,11795,15436,0.046,550
2019-08-03T12:38:39,42.805,6.029,CST-1368DR,8433,11795,15436,0.046,551
2019-08-03T12:41:41,42.805,6.029,CST-1368DR,8433,11794,15436,0.046,551
2019-08-03T12:44:43,42.805,6.029,CST-1368DR,8433,11793,15434,0.047,551
2019-08-03T12:47:44,42.805,6.029,CST-1368DR,8433,11794,15435,0.047,551
2019-08-03T12:50:46,42.805,6.029,CST-1368DR,8428,11072,14498,0.297,551
2019-08-03T12:53:48,42.805,6.029,CST-1368DR,8433,11792,15432,0.047,551
2019-08-03T12:56:50,42.805,6.029,CST-1368DR,8433,11796,15437,0.046,551
2019-08-03T12:59:52,42.805,6.029,CST-1368DR,8432,11794,15437,0.046,551
2019-08-03T13:02:54,42.805,6.029,CST-1368DR,8433,11795,15437,0.046,551
2019-08-03T13:05:55,42.805,6.029,CST-1368DR,8433,11795,15436,0.046,551
2019-08-03T13:08:57,42.805,6.029,CST-1368DR,8432,11794,15436,0.046,551
2019-08-03T13:11:59,42.805,6.029,CST-1368DR,8432,11793,15435,0.047,551
2019-08-03T13:15:01,42.805,6.029,CST-1368DR,8432,11791,15433,0.047,550
2019-08-03T13:18:03,42.805,6.029,CST-1368DR,8433,11795,15436,0.046,551
2019-08-03T13:21:04,42.805,6.029,CST-1368DR,8432,11794,15437,0.046,551
2019-08-03T13:24:06,42.805,6.029,CST-1368DR,8432,11790,15432,0.047,550
2019-08-03T13:27:08,42.805,6.029,CST-1368DR,8432,11795,15438,0.046,551
2019-08-03T13:30:10,42.805,6.029,CST-1368DR,8432,11793,15436,0.046,551
2019-08-03T13:33:11,42.805,6.029,CST-1368DR,8432,11795,15438,0.046,551
2019-08-03T13:36:13,42.805,6.029,CST-1368DR,8432,11793,15435,0.047,551
2019-08-03T13:39:15,42.805,6.029,CST-1368DR,8432,11794,15437,0.046,551
2019-08-03T13:42:17,42.805,6.029,CST-1368DR,8432,11791,15432,0.047,551
2019-08-03T13:45:19,42.805,6.029,CST-1368DR,8432,11789,15430,0.048,551
2019-08-03T13:48:20,42.805,6.029,CST-1368DR,8432,11792,15434,0.047,551
2019-08-03T13:51:22,42.805,6.029,CST-1368DR,8432,11794,15437,0.046,551
2019-08-03T13:54:24,42.805,6.029,CST-1368DR,8432,11795,15438,0.046,551
2019-08-03T13:57:26,42.805,6.029,CST-1368DR,8432,11795,15438,0.046,551
2019-08-03T14:00:27,42.805,6.029,CST-1368DR,8432,11790,15431,0.048,551
2019-08-03T14:03:29,42.805,6.029,CST-1368DR,8432,11793,15436,0.046,551
2019-08-03T14:06:31,42.805,6.029,CST-1368DR,8432,11793,15436,0.046,551
2019-08-03T14:09:33,42.805,6.029,CST-1368DR,8432,11794,15437,0.046,550
2019-08-03T14:12:35,42.805,6.029,CST-1368DR,8432,11794,15437,0.046,551
2019-08-03T14:15:36,42.805,6.029,CST-1368DR,8432,11792,15435,0.047,551
2019-08-03T14:18:38,42.805,6.029,CST-1368DR,8432,11793,15436,0.046,551
2019-08-03T14:21:40,42.805,6.029,CST-1368DR,8432,11793,15435,0.047,551
2019-08-03T14:24:42,42.805,6.029,CST-1368DR,8432,11794,15436,0.046,551
2019-08-03T14:27:44,42.805,6.029,CST-1368DR,8432,11793,15435,0.047,551
2019-08-03T14:30:45,42.805,6.029,CST-1368DR,8432,11793,15436,0.046,551
2019-08-03T14:33:47,42.805,6.029,CST-1368DR,8432,11795,15438,0.046,551
2019-08-03T14:36:49,42.805,6.029,CST-1368DR,8432,11792,15434,0.047,551
2019-08-03T14:39:50,42.805,6.029,CST-1368DR,8432,11794,15437,0.046,551
2019-08-03T14:42:52,42.805,6.029,CST-1368DR,8432,11794,15437,0.046,551
2019-08-03T14:45:54,42.805,6.029,CST-1368DR,8432,11794,15437,0.046,551
2019-08-03T14:48:56,42.805,6.029,CST-1368DR,8432,11792,15434,0.047,551
2019-08-03T14:51:57,42.805,6.029,CST-1368DR,8432,11789,15430,0.048,551
2019-08-03T14:54:59,42.805,6.029,CST-1368DR,8432,11792,15434,0.047,551
2019-08-03T14:58:01,42.805,6.029,CST-1368DR,8432,11790,15431,0.048,550
2019-08-03T15:01:03,42.805,6.029,CST-1368DR,8432,11793,15435,0.047,551
2019-08-03T15:04:04,42.805,6.029,CST-1368DR,8432,11793,15435,0.047,551
2019-08-03T15:07:06,42.805,6.029,CST-1368DR,8431,11791,15434,0.047,551
2019-08-03T15:10:08,42.805,6.029,CST-1368DR,8431,11789,15432,0.047,550
2019-08-03T15:13:10,42.805,6.029,CST-1368DR,8432,11792,15434,0.047,551
2019-08-03T15:16:12,42.805,6.029,CST-1368DR,8431,11791,15435,0.047,551
2019-08-03T15:19:13,42.805,6.029,CST-1368DR,8431,11791,15435,0.047,551
2019-08-03T15:22:15,42.805,6.029,CST-1368DR,8431,11790,15433,0.047,551
2019-08-03T15:25:17,42.805,6.029,CST-1368DR,8431,11785,15427,0.049,550
2019-08-03T15:28:19,42.805,6.029,CST-1368DR,8431,11793,15437,0.046,551
2019-08-03T15:31:20,42.805,6.029,CST-1368DR,8431,11791,15434,0.047,551
2019-08-03T15:34:22,42.805,6.029,CST-1368DR,8431,11777,15417,0.051,551
2019-08-03T15:37:24,42.805,6.029,CST-1368DR,8431,11783,15423,0.050,551
2019-08-03T15:40:26,42.805,6.029,CST-1368DR,8431,11786,15428,0.048,551
2019-08-03T15:43:27,42.805,6.029,CST-1368DR,8431,11791,15434,0.047,551
2019-08-03T15:46:29,42.805,6.029,CST-1368DR,8431,11791,15434,0.047,551
2019-08-03T15:49:31,42.805,6.029,CST-1368DR,8431,11790,15433,0.047,551
2019-08-03T15:52:33,42.805,6.029,CST-1368DR,8431,11792,15436,0.046,551
2019-08-03T15:55:35,42.805,6.029,CST-1368DR,8431,11791,15435,0.047,551
2019-08-03T15:58:37,42.805,6.029,CST-1368DR,8431,11791,15435,0.047,551
2019-08-03T16:01:38,42.805,6.029,CST-1368DR,8431,11792,15436,0.046,551
2019-08-03T16:04:40,42.805,6.029,CST-1368DR,8431,11791,15435,0.047,551
2019-08-03T16:07:42,42.805,6.029,CST-1368DR,8431,11791,15434,0.047,551
2019-08-03T16:10:44,42.805,6.029,CST-1368DR,8431,11789,15432,0.047,551
2019-08-03T16:13:46,42.805,6.029,CST-1368DR,8431,11791,15434,0.047,551
2019-08-03T16:16:47,42.805,6.029,CST-1368DR,8431,11790,15433,0.047,551
2019-08-03T16:19:49,42.805,6.029,CST-1368DR,8431,11789,15432,0.047,551
2019-08-03T16:22:51,42.805,6.029,CST-1368DR,8431,11791,15435,0.047,551
2019-08-03T16:25:53,42.805,6.029,CST-1368DR,8431,11786,15427,0.049,550
2019-08-03T16:28:55,42.805,6.029,CST-1368DR,8431,11789,15432,0.047,551
2019-08-03T16:31:56,42.805,6.029,CST-1368DR,8431,11790,15433,0.047,551
2019-08-03T16:34:58,42.805,6.029,CST-1368DR,8431,11789,15432,0.047,551
2019-08-03T16:38:00,42.805,6.029,CST-1368DR,8431,11791,15434,0.047,551